Location: Brede
(50.9167°N, 0.6000°E)
Time: 03:37:46
(UTC+00:00)

NOSS 2-3 (E) - Pass Details

Date: 08 August 2020
Orbit: 572 x 1639 km, 63.4° (Epoch: 24 September)

Event Time Altitude Azimuth Distance (km) Brightness Sun altitude
Exits shadow 03:14:41 12° 197° (SSW) 1,806 5.4 -11.1°
Maximum altitude 03:18:28 48° 124° (SE) 853 4.4 -10.7°
Drops below altitude 10° 03:23:20 10° 51° (NE) 2,295 8.1 -10.1°
Sets 03:26:04 0° 46° (NE) 3,382 9.7 -9.8°
